TimeCDT,TemperatureF,Dew PointF,Humidity,Sea Level PressureIn,VisibilityMPH,Wind Direction,Wind SpeedMPH,Gust SpeedMPH,PrecipitationIn,Events,Conditions,WindDirDegrees,DateUTC
12:15 AM,63.9,63.1,97,30.09,7.0,Calm,Calm,-,N/A,,Clear,0,2013-08-21 05:15:00
12:35 AM,64.0,63.1,97,30.10,7.0,Calm,Calm,-,N/A,,Clear,0,2013-08-21 05:35:00
12:55 AM,66.9,65.3,95,30.10,7.0,SE,3.5,-,N/A,,Clear,140,2013-08-21 05:55:00
1:15 AM,66.9,65.3,95,30.10,7.0,Calm,Calm,-,N/A,,Clear,0,2013-08-21 06:15:00
1:35 AM,66.0,64.9,96,30.10,7.0,SE,3.5,-,N/A,,Clear,140,2013-08-21 06:35:00
1:55 AM,66.2,64.9,96,30.09,7.0,SE,3.5,-,N/A,,Clear,140,2013-08-21 06:55:00
2:15 AM,66.4,65.3,96,30.09,7.0,Calm,Calm,-,N/A,,Clear,0,2013-08-21 07:15:00
2:35 AM,65.7,64.8,97,30.08,5.0,SSE,3.5,-,N/A,,Clear,160,2013-08-21 07:35:00
2:55 AM,65.7,64.8,97,30.08,5.0,Calm,Calm,-,N/A,,Clear,0,2013-08-21 07:55:00
3:15 AM,66.0,64.8,96,30.08,7.0,SSE,3.5,-,N/A,,Clear,150,2013-08-21 08:15:00
3:35 AM,66.6,64.9,95,30.08,7.0,SSE,3.5,-,N/A,,Clear,160,2013-08-21 08:35:00
3:55 AM,66.2,64.6,94,30.08,7.0,Calm,Calm,-,N/A,,Clear,0,2013-08-21 08:55:00
4:15 AM,65.7,64.4,96,30.08,7.0,Calm,Calm,-,N/A,,Clear,0,2013-08-21 09:15:00
4:35 AM,64.8,63.9,97,30.09,7.0,South,3.5,-,N/A,,Clear,170,2013-08-21 09:35:00
4:55 AM,64.9,64.0,97,30.10,5.0,SSE,3.5,-,N/A,,Clear,150,2013-08-21 09:55:00
5:15 AM,65.8,64.6,96,30.10,7.0,Calm,Calm,-,N/A,,Clear,0,2013-08-21 10:15:00
5:35 AM,64.0,63.1,97,30.10,5.0,Calm,Calm,-,N/A,,Clear,0,2013-08-21 10:35:00
5:55 AM,63.1,62.6,98,30.10,4.0,Calm,Calm,-,N/A,,Clear,0,2013-08-21 10:55:00
6:15 AM,63.0,62.6,99,30.11,2.5,Calm,Calm,-,N/A,,Clear,0,2013-08-21 11:15:00
6:35 AM,63.7,63.3,99,30.12,3.0,Calm,Calm,-,N/A,,Clear,0,2013-08-21 11:35:00
6:55 AM,64.4,63.9,98,30.12,2.5,Calm,Calm,-,N/A,,Clear,0,2013-08-21 11:55:00
7:15 AM,65.3,64.8,98,30.12,3.0,Calm,Calm,-,N/A,,Clear,0,2013-08-21 12:15:00
7:35 AM,67.1,66.0,96,30.13,4.0,Calm,Calm,-,N/A,,Clear,0,2013-08-21 12:35:00
7:55 AM,68.7,67.1,95,30.13,5.0,Calm,Calm,-,N/A,,Clear,0,2013-08-21 12:55:00
8:15 AM,70.9,68.4,92,30.14,7.0,Calm,Calm,-,N/A,,Clear,0,2013-08-21 13:15:00
8:35 AM,73.2,69.1,87,30.14,10.0,SW,3.5,-,N/A,,Clear,220,2013-08-21 13:35:00
8:55 AM,75.0,69.1,82,30.15,10.0,SW,3.5,-,N/A,,Clear,230,2013-08-21 13:55:00
9:15 AM,76.3,68.7,77,30.15,10.0,WSW,4.6,-,N/A,,Clear,240,2013-08-21 14:15:00
9:35 AM,77.5,68.9,75,30.14,10.0,SW,3.5,-,N/A,,Clear,230,2013-08-21 14:35:00
9:55 AM,78.8,68.5,71,30.15,10.0,Calm,Calm,-,N/A,,Clear,0,2013-08-21 14:55:00
10:15 AM,79.7,68.9,69,30.15,10.0,Calm,Calm,-,N/A,,Clear,0,2013-08-21 15:15:00
10:35 AM,80.8,69.3,68,30.15,10.0,Calm,Calm,-,N/A,,Clear,0,2013-08-21 15:35:00
10:55 AM,81.5,69.1,66,30.15,10.0,Calm,Calm,-,N/A,,Clear,0,2013-08-21 15:55:00
11:15 AM,81.7,68.5,64,30.15,10.0,Calm,Calm,-,N/A,,Clear,0,2013-08-21 16:15:00
11:35 AM,82.0,68.5,63,30.15,10.0,SW,4.6,-,N/A,,Clear,220,2013-08-21 16:35:00
11:55 AM,82.4,69.3,64,30.14,10.0,SSW,4.6,-,N/A,,Clear,210,2013-08-21 16:55:00
12:15 PM,83.3,68.4,61,30.14,10.0,SW,4.6,-,N/A,,Clear,230,2013-08-21 17:15:00
12:35 PM,82.4,68.9,64,30.13,10.0,WSW,5.8,-,N/A,,Clear,240,2013-08-21 17:35:00
12:55 PM,81.9,68.2,63,30.13,10.0,SW,3.5,-,N/A,,Clear,230,2013-08-21 17:55:00
1:15 PM,82.2,67.8,62,30.13,10.0,WSW,3.5,-,N/A,,Clear,240,2013-08-21 18:15:00
1:35 PM,83.7,68.9,61,30.12,10.0,SW,6.9,-,N/A,,Scattered Clouds,220,2013-08-21 18:35:00
1:55 PM,84.6,69.3,60,30.11,10.0,WSW,3.5,-,N/A,,Scattered Clouds,240,2013-08-21 18:55:00
2:15 PM,84.7,67.3,56,30.10,10.0,SSW,3.5,-,N/A,,Scattered Clouds,210,2013-08-21 19:15:00
2:35 PM,83.8,67.5,58,30.10,10.0,SW,3.5,-,N/A,,Scattered Clouds,230,2013-08-21 19:35:00
2:55 PM,84.6,67.5,56,30.09,10.0,SW,5.8,-,N/A,,Scattered Clouds,220,2013-08-21 19:55:00
3:15 PM,84.9,68.2,57,30.09,10.0,SW,4.6,-,N/A,,Clear,220,2013-08-21 20:15:00
3:35 PM,84.7,68.2,57,30.08,10.0,Calm,Calm,-,N/A,,Clear,0,2013-08-21 20:35:00
3:55 PM,85.1,67.8,56,30.08,10.0,SW,4.6,-,N/A,,Scattered Clouds,220,2013-08-21 20:55:00
4:15 PM,85.1,66.7,54,30.08,10.0,Calm,Calm,-,N/A,,Scattered Clouds,0,2013-08-21 21:15:00
4:35 PM,85.8,67.3,54,30.08,10.0,Calm,Calm,-,N/A,,Scattered Clouds,0,2013-08-21 21:35:00
4:55 PM,85.3,66.4,53,30.07,10.0,Calm,Calm,-,N/A,,Scattered Clouds,0,2013-08-21 21:55:00
5:15 PM,85.1,66.7,54,30.07,10.0,SW,3.5,-,N/A,,Scattered Clouds,220,2013-08-21 22:15:00
5:35 PM,84.4,67.3,56,30.06,10.0,South,3.5,-,N/A,,Scattered Clouds,180,2013-08-21 22:35:00
5:55 PM,83.7,68.0,59,30.06,10.0,South,3.5,-,N/A,,Clear,180,2013-08-21 22:55:00
6:15 PM,82.9,68.5,62,30.06,10.0,South,3.5,-,N/A,,Clear,170,2013-08-21 23:15:00
6:35 PM,81.9,69.8,67,30.06,10.0,Calm,Calm,-,N/A,,Clear,0,2013-08-21 23:35:00
6:55 PM,80.4,70.7,72,30.05,10.0,SSE,3.5,-,N/A,,Clear,160,2013-08-21 23:55:00
7:15 PM,78.8,70.3,75,30.05,10.0,Calm,Calm,-,N/A,,Clear,0,2013-08-22 00:15:00
7:35 PM,75.2,71.1,87,30.05,10.0,Calm,Calm,-,N/A,,Clear,0,2013-08-22 00:35:00
7:55 PM,73.0,71.1,93,30.05,10.0,Calm,Calm,-,N/A,,Clear,0,2013-08-22 00:55:00
8:15 PM,71.8,70.0,94,30.06,10.0,Calm,Calm,-,N/A,,Clear,0,2013-08-22 01:15:00
8:35 PM,72.0,69.6,92,30.06,10.0,Calm,Calm,-,N/A,,Clear,0,2013-08-22 01:35:00
8:55 PM,72.7,68.7,87,30.07,10.0,Calm,Calm,-,N/A,,Clear,0,2013-08-22 01:55:00
9:15 PM,72.1,68.0,87,30.08,10.0,SSE,3.5,-,N/A,,Clear,160,2013-08-22 02:15:00
9:35 PM,70.7,67.8,91,30.09,10.0,Calm,Calm,-,N/A,,Clear,0,2013-08-22 02:35:00
9:55 PM,70.9,67.5,89,30.10,10.0,SE,3.5,-,N/A,,Clear,140,2013-08-22 02:55:00
10:15 PM,72.7,67.5,84,30.10,10.0,SE,3.5,-,N/A,,Clear,130,2013-08-22 03:15:00
10:35 PM,71.6,67.1,86,30.10,10.0,SE,3.5,-,N/A,,Clear,130,2013-08-22 03:35:00
10:55 PM,71.8,67.1,85,30.09,10.0,SE,4.6,-,N/A,,Clear,140,2013-08-22 03:55:00
11:15 PM,72.0,67.1,85,30.10,10.0,SE,3.5,-,N/A,,Clear,130,2013-08-22 04:15:00
11:35 PM,70.9,66.6,86,30.10,10.0,SE,4.6,-,N/A,,Clear,140,2013-08-22 04:35:00
11:55 PM,71.2,66.6,85,30.10,10.0,Calm,Calm,-,N/A,,Clear,0,2013-08-22 04:55:00